Погода в Новом Мамангино

Россия / Республика Мордовия     54°13′05″N   43°53′18″E
темп.,
°C
ветер,
м/с
пор.,
м/с
влажн.,
%
обл.,
%
осадки,
мм/ч
давл.,
гПа
погр.,
м
17 апреля, сб
сб1700:00+11в512798 0.0 1021364
03:00+9в5118650 0.0 1021284
06:00+8всв5128486 0.0 1022333
09:00+13в696627 0.0 1021522
12:00+17в79547 0.0 1021942
15:00+18в795068 0.0 10201433
18:00+15всв712575 0.0 1019784
21:00+10в614610 0.0 1020460
18 апреля, вс
вс1800:00+8в51258100 0.0 1020424
03:00+6всв51260100 0.0 1020363
06:00+6в41163100 0.0 1020392
09:00+7в4963100 0.4 1021489
12:00+6вюв2881100 2.8 1022501
15:00+6всв41091100 11.7 1023528
18:00+7в41187100 0.4 1022435
21:00+7в31185100 0.6 1023411
19 апреля, пн
пн1900:00+6св3989100 0.1 1024311
03:00+6всв51182100 0.2 1024504
06:00+5в51179100 0.0 1024481
09:00+6в61067100 0.0 1025691
12:00+8в7962100 0.0 10251146
15:00+7в61064100 0.2 10261119
18:00+5в61169100 0.0 1026912
21:00+6в61172100 0.0 1026871
20 апреля, вт
вт2000:00+5в61276100 0.0 1026712
03:00+4в71378100 0.0 1025619
06:00+4в71477100 0.0 1025647
09:00+6вюв8156761 0.0 1024800
12:00+10вюв91357100 0.0 10231085
15:00+11вюв9155695 0.0 10211256
18:00+9вюв91860100 0.0 10201211
21:00+7вюв101980100 1.8 1019957
21 апреля, ср
ср2100:00+6вюв112188100 6.6 10161001
03:00+6юв112284100 8.3 10151167
06:00+6юв102086100 0.8 10141059
09:00+7ююв102084100 0.8 10141038
12:00+9ююв101881100 0.1 10151155
15:00+9ю91679100 0.1 10161227
18:00+9ююв81585100 0.0 10171161
21:00+7ююв8149296 0.4 1020553